TimePDT,TemperatureF,Dew PointF,Humidity,Sea Level PressureIn,VisibilityMPH,Wind Direction,Wind SpeedMPH,Gust SpeedMPH,PrecipitationIn,Events,Conditions,WindDirDegrees,DateUTC
12:53 AM,39.9,15.1,36,29.76,10.0,South,11.5,-,N/A,,Clear,170,2013-05-25 07:53:00
1:53 AM,42.1,14.0,32,29.75,10.0,South,12.7,-,N/A,,Clear,170,2013-05-25 08:53:00
2:53 AM,44.1,15.1,31,29.75,10.0,SSE,12.7,-,N/A,,Clear,150,2013-05-25 09:53:00
3:53 AM,46.9,14.0,27,29.73,10.0,South,13.8,-,N/A,,Clear,180,2013-05-25 10:53:00
4:53 AM,45.0,12.9,27,29.75,10.0,SSW,13.8,-,N/A,,Clear,210,2013-05-25 11:53:00
5:53 AM,43.0,12.9,30,29.77,10.0,South,12.7,-,N/A,,Clear,190,2013-05-25 12:53:00
6:53 AM,51.1,15.1,24,29.75,10.0,SSW,12.7,-,N/A,,Clear,200,2013-05-25 13:53:00
7:53 AM,59.0,15.1,18,29.76,10.0,South,15.0,-,N/A,,Clear,170,2013-05-25 14:53:00
8:53 AM,63.0,17.1,17,29.77,10.0,SSW,17.3,20.7,N/A,,Clear,210,2013-05-25 15:53:00
9:53 AM,64.9,16.0,15,29.77,10.0,SSW,13.8,23.0,N/A,,Clear,210,2013-05-25 16:53:00
10:53 AM,68.0,12.9,12,29.76,10.0,South,18.4,21.9,N/A,,Clear,190,2013-05-25 17:53:00
11:53 AM,68.0,12.0,11,29.79,10.0,WSW,9.2,21.9,N/A,,Clear,240,2013-05-25 18:53:00
12:53 PM,70.0,14.0,12,29.78,10.0,SSE,8.1,19.6,N/A,,Clear,160,2013-05-25 19:53:00
1:53 PM,73.0,12.9,10,29.74,10.0,SSW,12.7,26.5,N/A,,Clear,200,2013-05-25 20:53:00
2:53 PM,73.9,14.0,10,29.73,10.0,SSW,10.4,19.6,N/A,,Clear,210,2013-05-25 21:53:00
3:53 PM,73.9,12.9,10,29.69,10.0,South,13.8,19.6,N/A,,Clear,190,2013-05-25 22:53:00
4:12 PM,73.4,10.4,9,29.93,10.0,SSW,10.4,39.1,N/A,,Clear,210,2013-05-25 23:12:00
4:53 PM,73.0,14.0,11,29.70,10.0,South,13.8,27.6,N/A,,Clear,190,2013-05-25 23:53:00
5:53 PM,71.1,15.1,12,29.71,10.0,SSW,9.2,18.4,N/A,,Clear,200,2013-05-26 00:53:00
6:53 PM,70.0,12.0,11,29.68,10.0,SSW,13.8,27.6,N/A,,Clear,200,2013-05-26 01:53:00
7:53 PM,64.9,8.1,11,29.68,10.0,South,15.0,-,N/A,,Clear,190,2013-05-26 02:53:00
8:53 PM,64.0,7.0,11,29.68,10.0,South,19.6,26.5,N/A,,Clear,190,2013-05-26 03:53:00
9:53 PM,55.0,9.0,16,29.73,10.0,South,11.5,-,N/A,,Clear,170,2013-05-26 04:53:00
10:53 PM,59.0,6.1,12,29.70,10.0,SE,17.3,20.7,N/A,,Clear,130,2013-05-26 05:53:00
11:53 PM,55.9,7.0,14,29.73,10.0,South,13.8,-,N/A,,Clear,170,2013-05-26 06:53:00